Date String (YYYY-MM-DD hh:mm:ss) UTC,Instrument flags,absolute air pressure of the measurement (hPa),sample flow rate (lpm),inlet stack bypass flow (lpm),air temperature of the measurement (°C),ambient temperature measured by the external sensor (°C),aerosol sample conditioner tube jacket temperature (°C),OPC LED temperature (°C),internal box temperature (°C),relative humidity of the measurement (%),span deviation,mass concentration of particles derived from Lorenz-Mie calculation of OPC scattering (μg/m³),mass concentration of particles derived from Lorenz-Mie calculation of OPC scattering (μg/m³),mass concentration of particles derived from Lorenz-Mie calculation of OPC scattering (μg/m³)
DateTimeUTC,F1_M11,P_M11,Q1_M11,Q2_M11,T1_M11,T2_M11,T3_M11,T4_M11,T5_M11,U1_M11,ZSPAN_M11,X2_M11,X0_M11,X1_M11
2023-06-22 02:00:00,SystemResetWarning,0831.3,5.01,000.00,030.9,025.9,000.0,039.4,031.5,34.6,0001.7,0012.55,0042.72,0007.42
2023-06-22 02:01:00,SystemResetWarning,0831.3,4.97,000.00,030.9,026.4,000.0,039.4,031.5,35.3,0001.6,0012.50,0042.16,0007.45
2023-06-22 02:02:00,SystemResetWarning,0831.3,5.03,000.00,031.0,026.8,000.0,039.4,031.7,35.1,0001.5,0012.29,0041.91,0007.46
2023-06-22 02:03:00,SystemResetWarning,0831.3,5.00,000.00,031.3,027.2,000.0,039.3,031.9,34.8,0001.5,0012.13,0040.85,0007.48
2023-06-22 02:04:00,SystemResetWarning,0831.3,4.97,000.00,031.6,027.5,000.0,039.4,031.9,34.1,0001.6,0012.14,0040.54,0007.53
2023-06-22 02:05:00,SystemResetWarning,0831.2,5.03,000.00,031.7,027.8,000.0,039.4,032.0,34.2,0001.7,0012.08,0039.41,0007.54
2023-06-22 02:06:00,SystemResetWarning,0831.2,4.99,000.00,031.8,028.0,000.0,039.4,032.0,33.8,0001.8,0012.04,0037.92,0007.55
2023-06-22 02:07:00,SystemResetWarning,0831.2,4.99,000.00,031.8,028.2,000.0,039.5,032.0,33.7,0002.2,0012.08,0038.54,0007.56
2023-06-22 02:08:00,SystemResetWarning,0831.3,5.00,000.00,031.9,028.4,000.0,039.6,032.0,33.5,0002.0,0012.00,0038.68,0007.52
2023-06-22 02:09:00,SystemResetWarning,0831.3,4.99,000.00,031.9,027.7,000.0,039.6,032.1,33.5,0002.1,0012.06,0039.23,0007.50
2023-06-22 02:10:00,SystemResetWarning,0831.4,5.00,000.00,031.9,025.9,000.0,039.6,032.1,33.4,0001.9,0011.98,0039.24,0007.49
2023-06-22 02:11:00,SystemResetWarning,0831.4,5.01,000.00,031.9,025.3,000.0,039.6,032.0,33.5,0002.5,0011.88,0037.61,0007.48
2023-06-22 02:12:00,SystemResetWarning,0831.3,5.01,000.00,031.7,025.5,000.0,039.6,031.6,34.0,0002.9,0011.81,0036.88,0007.44
2023-06-22 02:13:00,SystemResetWarning,0831.3,5.00,000.00,031.6,025.9,000.0,039.6,031.5,34.3,0003.1,0011.82,0037.51,0007.41
2023-06-22 02:14:00,SystemResetWarning,0831.4,5.00,000.00,031.5,026.4,000.0,039.6,031.5,34.4,0003.4,0011.76,0036.75,0007.37
2023-06-22 02:15:00,SystemResetWarning,0831.3,5.00,000.00,031.5,026.8,000.0,039.7,031.6,34.2,0003.4,0011.68,0036.17,0007.33
2023-06-22 02:16:00,SystemResetWarning,0831.3,4.99,000.00,031.4,027.2,000.0,039.7,031.7,34.5,0003.4,0011.66,0036.31,0007.31
2023-06-22 02:17:00,SystemResetWarning,0831.3,5.00,000.00,031.4,027.5,000.0,039.6,031.7,34.6,0003.2,0011.55,0035.57,0007.29
2023-06-22 02:18:00,SystemResetWarning,0831.4,5.01,000.00,031.4,027.8,000.0,039.7,031.8,34.8,0003.1,0011.45,0034.25,0007.31
2023-06-22 02:19:00,SystemResetWarning,0831.5,5.02,000.00,031.4,028.0,000.0,039.6,031.8,34.7,0003.3,0011.37,0034.75,0007.32
2023-06-22 02:20:00,SystemResetWarning,0831.5,5.00,000.00,031.4,028.2,000.0,039.6,031.9,34.8,0003.5,0011.35,0034.28,0007.33
2023-06-22 02:21:00,SystemResetWarning,0831.5,4.99,000.00,031.4,028.0,000.0,039.6,031.9,34.7,0003.8,0011.28,0031.85,0007.34
2023-06-22 02:22:00,SystemResetWarning,0831.5,5.00,000.00,031.4,026.1,000.0,039.5,031.9,34.7,0003.6,0011.22,0032.66,0007.36
2023-06-22 02:23:00,SystemResetWarning,0831.5,5.01,000.00,031.3,025.3,000.0,039.5,031.9,34.6,0003.4,0011.16,0032.44,0007.39
2023-06-22 02:24:00,SystemResetWarning,0831.4,4.99,000.00,031.2,025.3,000.0,039.4,031.5,35.0,0003.3,0011.12,0030.87,0007.41
2023-06-22 02:25:00,SystemResetWarning,0831.5,5.02,000.00,031.1,025.7,000.0,039.4,031.4,35.3,0003.1,0011.11,0029.95,0007.41
2023-06-22 02:26:00,SystemResetWarning,0831.5,5.01,000.00,031.3,026.2,000.0,039.4,031.6,35.0,0003.2,0011.04,0029.73,0007.43
2023-06-22 02:27:00,SystemResetWarning,0831.6,4.98,000.00,031.6,026.6,000.0,039.4,031.8,34.4,0003.1,0010.97,0029.47,0007.45
2023-06-22 02:28:00,SystemResetWarning,0831.6,5.00,000.00,031.7,027.0,000.0,039.4,031.8,33.9,0003.3,0010.97,0029.82,0007.47
2023-06-22 02:29:00,SystemResetWarning,0831.7,5.00,000.00,031.8,027.4,000.0,039.5,031.8,33.4,0003.3,0010.94,0030.69,0007.45
2023-06-22 02:30:00,SystemResetWarning,0831.7,5.01,000.00,031.8,027.6,000.0,039.5,031.8,32.7,0003.3,0010.84,0029.62,0007.42
2023-06-22 02:31:00,SystemResetWarning,0831.7,4.99,000.00,031.8,027.9,000.0,039.6,031.9,32.2,0003.3,0010.65,0027.91,0007.40
2023-06-22 02:32:00,SystemResetWarning,0831.8,4.99,000.00,031.8,028.1,000.0,039.6,031.9,31.9,0003.2,0010.56,0027.51,0007.38
2023-06-22 02:33:00,SystemResetWarning,0832.0,5.01,000.00,031.8,028.3,000.0,039.7,031.9,31.6,0003.5,0010.59,0027.12,0007.35
2023-06-22 02:34:00,SystemResetWarning,0831.9,5.01,000.00,031.8,028.4,000.0,039.7,032.0,31.4,0003.6,0010.56,0027.74,0007.31
2023-06-22 02:35:00,SystemResetWarning,0832.0,4.98,000.00,031.9,026.8,000.0,039.7,032.0,31.3,0003.8,0010.49,0029.44,0007.26
2023-06-22 02:36:00,SystemResetWarning,0832.0,5.02,000.00,031.8,025.5,000.0,039.6,031.9,31.4,0004.1,0010.32,0030.93,0007.22
2023-06-22 02:37:00,SystemResetWarning,0832.1,5.00,000.00,031.8,025.3,000.0,039.6,031.7,31.6,0003.9,0010.29,0033.17,0007.17
2023-06-22 02:38:00,SystemResetWarning,0832.1,5.00,000.00,031.6,025.6,000.0,039.6,031.5,31.8,0003.9,0010.26,0033.56,0007.14
2023-06-22 02:39:00,SystemResetWarning,0832.2,5.00,000.00,031.5,026.0,000.0,039.6,031.5,32.1,0003.6,0010.30,0034.82,0007.09
2023-06-22 02:40:00,SystemResetWarning,0832.2,5.00,000.00,031.4,026.5,000.0,039.6,031.5,32.2,0003.6,0010.31,0035.01,0007.07
2023-06-22 02:41:00,SystemResetWarning,0832.2,4.99,000.00,031.4,026.9,000.0,039.6,031.5,32.2,0003.5,0010.30,0036.02,0007.07
2023-06-22 02:42:00,SystemResetWarning,0832.2,5.01,000.00,031.3,027.3,000.0,039.6,031.7,32.2,0003.2,0010.36,0037.82,0007.07
2023-06-22 02:43:00,SystemResetWarning,0832.2,5.00,000.00,031.3,027.6,000.0,039.6,031.7,32.3,0003.0,0010.45,0039.38,0007.08
2023-06-22 02:44:00,SystemResetWarning,0832.2,4.99,000.00,031.3,027.8,000.0,039.6,031.7,32.4,0002.8,0010.34,0038.63,0007.07
2023-06-22 02:45:00,SystemResetWarning,0832.2,5.00,000.00,031.3,028.0,000.0,039.6,031.7,32.4,0002.7,0010.35,0039.45,0007.09
2023-06-22 02:46:00,SystemResetWarning,0832.2,5.00,000.00,031.3,028.2,000.0,039.6,031.8,32.5,0002.3,0010.35,0037.81,0007.12
2023-06-22 02:47:00,SystemResetWarning,0832.2,5.00,000.00,031.3,028.4,000.0,039.6,031.9,32.6,0002.1,0010.38,0037.13,0007.15
2023-06-22 02:48:00,SystemResetWarning,0832.2,4.99,000.00,031.3,027.5,000.0,039.5,031.9,32.7,0002.1,0010.36,0034.61,0007.15
2023-06-22 02:49:00,SystemResetWarning,0832.1,5.00,000.00,031.2,025.7,000.0,039.4,031.8,32.8,0002.2,0010.30,0033.45,0007.16
2023-06-22 02:50:00,SystemResetWarning,0832.0,5.00,000.00,031.2,025.1,000.0,039.4,031.7,33.0,0002.6,0010.16,0031.63,0007.16
2023-06-22 02:51:00,SystemResetWarning,0831.9,5.01,000.00,031.0,025.4,000.0,039.3,031.4,33.4,0002.5,0010.03,0029.96,0007.15
2023-06-22 02:52:00,SystemResetWarning,0831.8,5.01,000.00,030.9,025.8,000.0,039.3,031.3,33.8,0002.6,0009.96,0028.84,0007.15
2023-06-22 02:53:00,SystemResetWarning,0832.3,5.00,000.00,030.8,026.3,000.0,039.3,031.3,34.1,0002.6,0009.87,0027.67,0007.14
2023-06-22 02:54:00,SystemResetWarning,0832.2,4.98,000.00,030.8,026.7,000.0,039.3,031.4,34.2,0002.8,0009.75,0026.18,0007.13
2023-06-22 02:55:00,SystemResetWarning,0831.9,4.99,000.00,030.7,027.1,000.0,039.3,031.4,34.2,0002.7,0009.67,0025.11,0007.14
2023-06-22 02:56:00,SystemResetWarning,0832.1,5.00,000.00,030.7,027.4,000.0,039.2,031.5,34.2,0002.6,0009.67,0023.69,0007.15
2023-06-22 02:57:00,SystemResetWarning,0832.2,5.01,000.00,030.7,027.6,000.0,039.2,031.5,34.3,0002.8,0009.53,0021.62,0007.13
2023-06-22 02:58:00,SystemResetWarning,0832.3,5.00,000.00,030.7,027.9,000.0,039.2,031.6,34.4,0002.6,0009.47,0020.94,0007.13
2023-06-22 02:59:00,SystemResetWarning,0832.5,5.00,000.00,030.7,028.0,000.0,039.2,031.6,34.4,0002.3,0009.38,0019.54,0007.11
